When you browse on this site, cookies collect data to enhance your experience and personalize the content and advertising you see.
Visit our Privacy Policy to learn more. By continuing to use the site, you agree to this use of cookies and data.
  • Em Portugal
  • Lista de países
  • Para 7 dias
  • Temperatura da água
  • Mapas de satélite
  • Mapa do tempo
  • Widgets de tempo
  • user-avatar
    Iniciar Sessão

    Previsão horária em Hovanschina

    Hoje, 24 Junho, Segunda-feira

    Tempo Temperatura Precipitação Vento Pressão Humidade
    00:00 +21°C° 0 mm 1 m/s 740 mmHg 88%
    01:00 +21°C° 0.1 mm 1 m/s 740 mmHg 90%
    02:00 +20°C° 0.1 mm 1 m/s 741 mmHg 92%
    03:00 +19°C° 0 mm 2 m/s 740 mmHg 93%
    04:00 +19°C° 0.3 mm 2 m/s 740 mmHg 92%
    05:00 +19°C° 0.3 mm 2 m/s 740 mmHg 91%
    06:00 +19°C° 0.3 mm 2 m/s 740 mmHg 90%
    07:00 +20°C° 0 mm 3 m/s 741 mmHg 85%
    08:00 +21°C° 0 mm 3 m/s 741 mmHg 81%
    09:00 +22°C° 0 mm 3 m/s 741 mmHg 77%
    10:00 +22°C° 0.2 mm 3 m/s 741 mmHg 75%
    11:00 +24°C° 0.2 mm 3 m/s 741 mmHg 74%
    12:00 +25°C° 0.2 mm 3 m/s 741 mmHg 72%
    13:00 +24°C° 0.6 mm 3 m/s 741 mmHg 75%
    14:00 +24°C° 0.6 mm 3 m/s 741 mmHg 77%
    15:00 +22°C° 0 mm 3 m/s 741 mmHg 89%
    16:00 +22°C° 0.1 mm 3 m/s 741 mmHg 85%
    17:00 +22°C° 0.1 mm 4 m/s 741 mmHg 81%
    18:00 +22°C° 0.1 mm 4 m/s 741 mmHg 77%
    19:00 +21°C° 0.1 mm 3 m/s 741 mmHg 78%
    20:00 +19°C° 0.1 mm 3 m/s 741 mmHg 80%
    21:00 +17°C° 0.1 mm 2 m/s 741 mmHg 81%
    22:00 +17°C° 0 mm 3 m/s 741 mmHg 81%
    23:00 +16°C° 0 mm 3 m/s 741 mmHg 81%

    Amanhã, 25 Junho, Terça-feira

    Tempo Temperatura Precipitação Vento Pressão Humidade
    00:00 +14°C° 0 mm 3 m/s 741 mmHg 81%
    01:00 +14°C° 0 mm 3 m/s 741 mmHg 80%
    02:00 +13°C° 0 mm 3 m/s 742 mmHg 79%
    03:00 +12°C° 0 mm 3 m/s 742 mmHg 79%
    04:00 +12°C° 0 mm 3 m/s 742 mmHg 78%
    05:00 +13°C° 0 mm 4 m/s 742 mmHg 77%
    06:00 +13°C° 0 mm 4 m/s 743 mmHg 77%
    07:00 +15°C° 0 mm 4 m/s 743 mmHg 73%
    08:00 +17°C° 0 mm 4 m/s 743 mmHg 69%
    09:00 +19°C° 0 mm 5 m/s 744 mmHg 65%
    10:00 +19°C° 0 mm 5 m/s 744 mmHg 61%
    11:00 +20°C° 0 mm 4 m/s 744 mmHg 58%
    12:00 +21°C° 0 mm 4 m/s 744 mmHg 54%
    13:00 +21°C° 0 mm 4 m/s 744 mmHg 54%
    14:00 +21°C° 0 mm 4 m/s 744 mmHg 55%
    15:00 +21°C° 0 mm 5 m/s 744 mmHg 55%
    16:00 +21°C° 0 mm 4 m/s 744 mmHg 59%
    17:00 +20°C° 0 mm 4 m/s 744 mmHg 63%
    18:00 +20°C° 0 mm 3 m/s 744 mmHg 67%
    19:00 +18°C° 0 mm 3 m/s 744 mmHg 69%
    20:00 +16°C° 0 mm 3 m/s 744 mmHg 70%
    21:00 +14°C° 0 mm 3 m/s 744 mmHg 72%
    22:00 +13°C° 0 mm 3 m/s 744 mmHg 75%
    23:00 +12°C° 0 mm 3 m/s 744 mmHg 79%

    Depois de amanhã, 26 Junho, Quarta-feira

    Tempo Temperatura Precipitação Vento Pressão Humidade
    00:00 +12°C° 0 mm 2 m/s 744 mmHg 82%
    01:00 +11°C° 0 mm 3 m/s 744 mmHg 83%
    02:00 +10°C° 0 mm 3 m/s 744 mmHg 85%
    03:00 +10°C° 0 mm 3 m/s 745 mmHg 87%
    04:00 +10°C° 0 mm 3 m/s 744 mmHg 85%
    05:00 +11°C° 0 mm 3 m/s 744 mmHg 83%
    06:00 +12°C° 0 mm 3 m/s 744 mmHg 81%
    07:00 +13°C° 0 mm 3 m/s 744 mmHg 74%
    08:00 +16°C° 0 mm 3 m/s 744 mmHg 68%
    09:00 +17°C° 0 mm 4 m/s 745 mmHg 62%
    10:00 +18°C° 0 mm 3 m/s 744 mmHg 58%
    11:00 +18°C° 0 mm 3 m/s 744 mmHg 55%
    12:00 +19°C° 0 mm 3 m/s 744 mmHg 52%
    13:00 +19°C° 0 mm 3 m/s 744 mmHg 51%
    14:00 +20°C° 0 mm 3 m/s 743 mmHg 51%
    15:00 +20°C° 0 mm 3 m/s 743 mmHg 51%
    16:00 +20°C° 0 mm 3 m/s 743 mmHg 55%
    17:00 +19°C° 0 mm 2 m/s 742 mmHg 59%
    18:00 +19°C° 0 mm 2 m/s 741 mmHg 64%
    19:00 +18°C° 0 mm 2 m/s 741 mmHg 66%
    20:00 +16°C° 0 mm 2 m/s 741 mmHg 69%
    21:00 +14°C° 0 mm 2 m/s 741 mmHg 71%
    22:00 +14°C° 0.1 mm 2 m/s 740 mmHg 77%
    23:00 +14°C° 0.1 mm 2 m/s 740 mmHg 82%

    27 Junho, Quinta-feira

    Tempo Temperatura Precipitação Vento Pressão Humidade
    00:00 +14°C° 0.1 mm 2 m/s 739 mmHg 87%
    01:00 +14°C° 0.2 mm 2 m/s 739 mmHg 90%
    02:00 +13°C° 0.2 mm 2 m/s 739 mmHg 92%
    03:00 +12°C° 0.2 mm 3 m/s 738 mmHg 94%
    04:00 +12°C° 0.1 mm 3 m/s 738 mmHg 95%
    05:00 +13°C° 0.1 mm 2 m/s 737 mmHg 95%
    06:00 +13°C° 0.1 mm 2 m/s 737 mmHg 95%
    07:00 +14°C° 0.2 mm 2 m/s 736 mmHg 94%
    08:00 +14°C° 0.2 mm 2 m/s 736 mmHg 93%
    09:00 +14°C° 0.2 mm 2 m/s 736 mmHg 92%
    10:00 +14°C° 0.1 mm 2 m/s 735 mmHg 91%
    11:00 +14°C° 0.1 mm 3 m/s 735 mmHg 90%
    12:00 +14°C° 0.1 mm 3 m/s 734 mmHg 89%
    13:00 +14°C° 0.3 mm 4 m/s 734 mmHg 90%
    14:00 +15°C° 0.3 mm 4 m/s 733 mmHg 90%
    15:00 +15°C° 0.3 mm 4 m/s 733 mmHg 91%
    16:00 +15°C° 1.7 mm 4 m/s 732 mmHg 93%
    17:00 +14°C° 1.7 mm 5 m/s 732 mmHg 95%
    18:00 +14°C° 1.7 mm 5 m/s 731 mmHg 97%
    19:00 +14°C° 0.7 mm 5 m/s 731 mmHg 96%
    20:00 +14°C° 0.7 mm 6 m/s 730 mmHg 96%
    21:00 +15°C° 0.7 mm 6 m/s 730 mmHg 96%
    22:00 +15°C° 0.3 mm 6 m/s 729 mmHg 96%
    23:00 +15°C° 0.3 mm 6 m/s 729 mmHg 95%

    28 Junho, Sexta-feira

    Tempo Temperatura Precipitação Vento Pressão Humidade
    00:00 +15°C° 0.3 mm 6 m/s 728 mmHg 95%
    01:00 +15°C° 0.5 mm 6 m/s 727 mmHg 95%
    02:00 +15°C° 0.5 mm 6 m/s 727 mmHg 95%
    03:00 +15°C° 0.5 mm 6 m/s 726 mmHg 95%
    04:00 +15°C° 0.2 mm 6 m/s 726 mmHg 94%
    05:00 +15°C° 0.2 mm 6 m/s 725 mmHg 93%
    06:00 +15°C° 0.2 mm 6 m/s 725 mmHg 92%
    07:00 +15°C° 0.1 mm 6 m/s 724 mmHg 91%
    08:00 +14°C° 0.1 mm 7 m/s 724 mmHg 90%
    09:00 +14°C° 0.1 mm 7 m/s 724 mmHg 89%
    10:00 +14°C° 1.5 mm 6 m/s 724 mmHg 91%
    11:00 +14°C° 1.5 mm 5 m/s 724 mmHg 93%
    12:00 +15°C° 1.5 mm 4 m/s 724 mmHg 95%
    13:00 +17°C° 0.3 mm 4 m/s 725 mmHg 89%
    14:00 +18°C° 0.3 mm 4 m/s 725 mmHg 83%
    15:00 +19°C° 0.3 mm 4 m/s 725 mmHg 77%
    16:00 +19°C° 0.3 mm 4 m/s 725 mmHg 78%
    17:00 +19°C° 0.3 mm 4 m/s 725 mmHg 79%
    18:00 +19°C° 0.3 mm 4 m/s 725 mmHg 81%
    19:00 +17°C° 0.1 mm 3 m/s 725 mmHg 85%
    20:00 +16°C° 0.1 mm 3 m/s 725 mmHg 88%
    21:00 +13°C° 0.1 mm 3 m/s 725 mmHg 92%
    22:00 +12°C° 0 mm 3 m/s 725 mmHg 93%
    23:00 +12°C° 0 mm 3 m/s 725 mmHg 93%

    29 Junho, Sábado

    Tempo Temperatura Precipitação Vento Pressão Humidade
    00:00 +11°C° 0 mm 3 m/s 725 mmHg 94%
    01:00 +11°C° 0 mm 3 m/s 725 mmHg 95%
    02:00 +10°C° 0 mm 3 m/s 725 mmHg 96%
    03:00 +10°C° 0 mm 3 m/s 725 mmHg 97%
    04:00 +10°C° 0 mm 3 m/s 726 mmHg 95%
    05:00 +11°C° 0 mm 4 m/s 726 mmHg 94%
    06:00 +11°C° 0 mm 4 m/s 726 mmHg 92%
    07:00 +12°C° 0 mm 4 m/s 726 mmHg 89%
    08:00 +13°C° 0 mm 4 m/s 726 mmHg 85%
    09:00 +14°C° 0 mm 5 m/s 727 mmHg 81%
    10:00 +15°C° 0.3 mm 4 m/s 727 mmHg 78%
    11:00 +17°C° 0.3 mm 4 m/s 727 mmHg 75%
    12:00 +18°C° 0.3 mm 4 m/s 727 mmHg 72%
    13:00 +18°C° 0.7 mm 4 m/s 727 mmHg 73%
    14:00 +19°C° 0.7 mm 4 m/s 727 mmHg 74%
    15:00 +19°C° 0.7 mm 4 m/s 727 mmHg 74%
    16:00 +19°C° 0.3 mm 4 m/s 727 mmHg 76%
    17:00 +18°C° 0.3 mm 3 m/s 727 mmHg 77%
    18:00 +18°C° 0.3 mm 3 m/s 728 mmHg 78%
    19:00 +17°C° 0.2 mm 2 m/s 728 mmHg 82%
    20:00 +15°C° 0.2 mm 2 m/s 728 mmHg 85%
    21:00 +14°C° 0.2 mm 1 m/s 728 mmHg 89%
    22:00 +13°C° 0 mm 1 m/s 728 mmHg 90%
    23:00 +13°C° 0 mm 1 m/s 728 mmHg 91%
    Mostrar mais